This demonstration page uses our WeatherBlox Daily Observations layout. Learn more.

Hourly Observations for March 11, 2019

Temp ( °F °C ) Dew Point ( °F °C ) Humidity (%) Winds ( mph kmh ) Pressure ( in mb ) Visibility ( mi km ) Precip ( " mm )
12:15 am 00:15 Clear 25 -4.1 23 -4.9 94 94 SE 8 13 30.39 1029 10 16.0934 0 0
12:35 am 00:35 Clear 25 -3.7 24 -4.5 94 94 SSE 7 11 30.38 1029 10 16.0934 0 0
12:55 am 00:55 Clear 25 -3.9 24 -4.6 95 95 SE 6 9 30.38 1029 10 16.0934 0 0
1:15 am 01:15 Clear 24 -4.5 23 -5 96 96 SE 5 7 30.39 1029 10 16.0934 0 0
1:35 am 01:35 Clear 25 -4 24 -4.5 96 96 SSE 3 6 30.37 1029 10 16.0934 0 0
1:55 am 01:55 Clear 25 -4 24 -4.7 95 95 SE 6 9 30.38 1029 10 16.0934 0 0
2:15 am 02:15 Clear 25 -4 24 -4.5 96 96 SSE 5 7 30.38 1029 10 16.0934 0 0
2:35 am 02:35 Clear 23 -5 22 -5.4 97 97 SSE 6 9 30.38 1029 10 16.0934 0 0
2:55 am 02:55 Clear 24 -4.5 23 -5 96 96 SSE 6 9 30.39 1029 10 16.0934 0 0
3:15 am 03:15 Clear 24 -4.7 23 -5.1 97 97 SSE 5 7 30.39 1029 10 16.0934 0 0
3:35 am 03:35 Clear 24 -4.5 23 -5 96 96 SSE 6 9 30.39 1029 10 16.0934 0 0
3:55 am 03:55 Clear 23 -4.8 23 -5.2 97 97 SSE 5 7 30.4 1030 10 16.0934 0 0
4:15 am 04:15 Clear 23 -4.9 23 -5.2 98 98 SSE 3 6 30.4 1030 10 16.0934 0 0
4:35 am 04:35 Clear 21 -5.9 20 -6.6 95 95 SE 3 6 30.4 1030 10 16.0934 0 0
4:55 am 04:55 Clear 21 -6.2 20 -6.5 98 98 Calm 30.41 1030 10 16.0934 0 0
5:15 am 05:15 Clear 21 -6.2 20 -6.5 98 98 Calm 30.42 1030 10 16.0934 0 0
5:35 am 05:35 Clear 23 -4.9 23 -5.2 98 98 SSE 3 6 30.41 1030 10 16.0934 0 0
5:55 am 05:55 Clear 22 -5.6 21 -6.1 96 96 Calm 30.42 1030 10 16.0934 0 0
6:15 am 06:15 Clear 23 -5.1 22 -5.4 98 98 Calm 30.42 1030 10 16.0934 0 0
6:35 am 06:35 Clear 22 -5.7 21 -6 98 98 Calm 30.43 1031 10 16.0934 0 0
6:55 am 06:55 Clear 21 -6.3 20 -6.6 98 98 Calm 30.43 1030 10 16.0934 0 0
7:15 am 07:15 Clear 22 -5.4 22 -5.5 99 99 Calm 30.42 1030 10 16.0934 0 0
7:35 am 07:35 Clear 23 -4.8 23 -5 99 99 SSE 3 6 30.41 1030 10 16.0934 0 0
7:55 am 07:55 Clear 24 -4.7 23 -5 98 98 S 3 6 30.41 1030 10 16.0934 0 0
8:15 am 08:15 Sunny 23 -5.2 22 -5.6 97 97 Calm 30.43 1030 10 16.0934 0 0
8:35 am 08:35 Sunny 22 -5.3 22 -5.7 97 97 Calm 30.45 1031 10 16.0934 0 0
8:55 am 08:55 Sunny 24 -4.6 23 -4.9 98 98 Calm 30.45 1031 10 16.0934 0 0
9:15 am 09:15 Sunny 27 -2.9 26 -3.6 95 95 S 3 6 30.43 1031 10 16.0934 0 0
9:35 am 09:35 Sunny 28 -2.1 26 -3.6 90 90 S 7 11 30.43 1030 10 16.0934 0 0
9:55 am 09:55 Sunny 30 -1.2 27 -3 88 88 S 7 11 30.43 1030 10 16.0934 0 0
10:15 am 10:15 Sunny 31 -0.5 28 -2.5 87 87 S 3 6 30.43 1030 10 16.0934 0 0
10:35 am 10:35 Sunny 32 0 28 -2 87 87 Calm 30.43 1030 10 16.0934 0 0
10:55 am 10:55 Sunny 33 0.6 28 -2 83 83 S 6 9 30.42 1030 10 16.0934 0 0
11:15 am 11:15 Sunny 35 1.4 29 -1.4 82 82 SSE 5 7 30.41 1030 10 16.0934 0 0
11:35 am 11:35 Sunny 36 2.1 30 -1 80 80 SSE 6 9 30.4 1029 10 16.0934 0 0
11:55 am 11:55 Sunny 37 2.5 30 -1 78 78 SSE 6 9 30.38 1029 10 16.0934 0 0
12:15 pm 12:15 Sunny 37 2.5 31 -0.8 79 79 SSE 5 7 30.37 1029 10 16.0934 0 0
12:35 pm 12:35 Sunny 37 2.9 32 -0.2 80 80 SSE 7 11 30.36 1028 10 16.0934 0 0
12:55 pm 12:55 Sunny 38 3.5 32 0 78 78 SE 6 9 30.36 1028 10 16.0934 0 0
1:15 pm 13:15 Sunny 39 3.7 32 0 77 77 SSE 7 11 30.36 1028 10 16.0934 0 0
1:35 pm 13:35 Sunny 40 4.5 32 0 73 73 SSE 7 11 30.34 1028 10 16.0934 0 0
1:55 pm 13:55 Sunny 41 5 32 0 70 70 S 7 11 30.33 1027 10 16.0934 0 0
2:15 pm 14:15 Sunny 42 5.5 32 0 68 68 S 7 11 30.32 1027 10 16.0934 0 0
2:35 pm 14:35 Sunny 42 5.8 32 0.2 68 68 SSE 6 9 30.3 1026 10 16.0934 0 0
2:55 pm 14:55 Sunny 44 6.5 34 0.9 68 68 SSE 8 13 30.28 1026 10 16.0934 0 0
3:15 pm 15:15 Sunny 44 6.5 32 0.1 64 64 SSE 9 15 30.27 1025 10 16.0934 0 0
3:35 pm 15:35 Sunny 43 6.2 33 0.7 68 68 SSE 7 11 30.27 1025 10 16.0934 0 0
3:55 pm 15:55 Sunny 44 6.5 33 0.6 66 66 SSE 9 15 30.26 1025 10 16.0934 0 0
4:15 pm 16:15 Sunny 44 6.7 34 1.1 68 68 SSE 9 15 30.26 1025 10 16.0934 0 0
4:35 pm 16:35 Mostly Cloudy 43 5.9 34 1.1 72 72 SSE 6 9 30.27 1025 10 16.0934 0 0
4:55 pm 16:55 Cloudy 42 5.8 34 1.3 73 73 SSE 5 7 30.26 1025 10 16.0934 0 0
5:15 pm 17:15 Cloudy 42 5.6 35 1.7 76 76 SSE 5 7 30.25 1024 10 16.0934 0 0
5:35 pm 17:35 Cloudy 41 5.1 36 2 81 81 SSE 5 7 30.26 1025 10 16.0934 0 0
5:55 pm 17:55 Cloudy 41 5.2 35 1.5 77 77 SSE 7 11 30.25 1024 10 16.0934 0 0
6:15 pm 18:15 Cloudy 40 4.6 35 1.5 81 81 SSE 7 11 30.25 1024 10 16.0934 0 0
6:35 pm 18:35 Cloudy 39 4.1 35 1.5 83 83 SE 8 13 30.26 1025 10 16.0934 0 0
6:55 pm 18:55 Cloudy 39 3.7 34 0.9 82 82 SSE 9 15 30.26 1025 10 16.0934 0 0
7:15 pm 19:15 Cloudy 38 3.5 34 1.1 84 84 SSE 7 11 30.26 1025 10 16.0934 0 0
7:35 pm 19:35 Cloudy 38 3.5 34 1.1 84 84 SSE 10 17 30.26 1025 10 16.0934 0 0
7:55 pm 19:55 Cloudy 38 3.1 33 0.8 85 85 SSE 9 15 30.29 1026 10 16.0934 0 0
8:15 pm 20:15 Cloudy 37 3 34 1 87 87 SSE 7 11 30.29 1026 10 16.0934 0 0
8:35 pm 20:35 Cloudy 38 3.2 34 1 86 86 SSE 10 17 30.28 1025 10 16.0934 0 0
9:15 pm 21:15 Cloudy 37 3 34 1.1 87 87 SSE 9 15 30.28 1025 10 16.0934 0 0
9:35 pm 21:35 Cloudy 37 3 34 1.2 88 88 SSE 6 9 30.28 1025 10 16.0934 0 0
9:55 pm 21:55 Cloudy 38 3.2 34 1.1 86 86 SSE 7 11 30.27 1025 10 16.0934 0 0
10:15 pm 22:15 Cloudy 37 3 34 1.1 87 87 SSE 8 13 30.27 1025 10 16.0934 0 0
10:35 pm 22:35 Cloudy 38 3.2 34 1.2 87 87 SSE 10 17 30.28 1025 10 16.0934 0 0
10:55 pm 22:55 Cloudy 38 3.2 34 1.1 86 86 SSE 10 17 30.26 1025 10 16.0934 0 0
11:15 pm 23:15 Cloudy 38 3.1 34 1.2 88 88 SSE 10 17 30.26 1025 10 16.0934 0 0
11:35 pm 23:35 Cloudy 37 3 34 1.1 87 87 SSE 9 15 30.25 1024 10 16.0934 0 0
11:55 pm 23:55 Cloudy 38 3.4 34 1 84 84 SSE 10 17 30.23 1024 10 16.0934 0 0

Powered by AerisWeather